This demonstration page uses our WeatherBlox Daily Observations layout. Learn more.

36.17497, -115.13722

Hourly Observations for April 23, 2018

Temp ( °F °C ) Dew Point ( °F °C ) Humidity (%) Winds ( mph kmh ) Pressure ( in mb ) Visibility ( mi km ) Precip ( " mm )
12:53 am 00:53 Clear 71 21.7 22 -5.6 16 16 NNW 6 9 29.83 1010 10 16.09344 0 0
1:53 am 01:53 Clear 67 19.4 24 -4.4 20 20 NW 6 9 29.83 1010 10 16.09344 0 0
2:53 am 02:53 Clear 66 18.9 21 -6.1 18 18 NW 7 11 29.85 1011 10 16.09344 0 0
3:53 am 03:53 Clear 64 17.8 20 -6.7 18 18 NW 5 7 29.85 1011 10 16.09344 0 0
4:53 am 04:53 Clear 64 17.8 21 -6.1 19 19 Calm 29.88 1012 10 16.09344 0 0
5:53 am 05:53 Clear 63 17.2 24 -4.4 23 23 WNW 6 9 29.88 1012 10 16.09344 0 0
6:53 am 06:53 Sunny 65 18.3 22 -5.6 19 19 NNW 7 11 29.91 1013 10 16.09344 0 0
7:53 am 07:53 Sunny 71 21.7 22 -5.6 16 16 NNW 7 11 29.94 1014 10 16.09344 0 0
8:53 am 08:53 Sunny 76 24.4 25 -3.9 15 15 ENE 6 9 29.94 1014 10 16.09344 0 0
9:53 am 09:53 Sunny 79 26.1 25 -3.9 14 14 N 7 11 29.94 1014 10 16.09344 0 0
10:53 am 10:53 Sunny 82 27.8 22 -5.6 11 11 ESE 5 7 29.94 1014 10 16.09344 0 0
11:53 am 11:53 Sunny 85 29.4 21 -6.1 9 9 Calm 29.94 1014 10 16.09344 0 0
12:53 pm 12:53 Sunny 87 30.6 19 -7.2 8 8 Calm 29.91 1013 10 16.09344 0 0
1:53 pm 13:53 Sunny 89 31.7 17 -8.3 7 7 Calm 29.88 1012 10 16.09344 0 0
2:53 pm 14:53 Sunny 92 33.3 15 -9.4 6 6 SW 18 30 29.85 1011 10 16.09344 0 0
3:53 pm 15:53 Sunny 91 32.8 16 -8.9 6 6 SW 12 19 29.83 1010 10 16.09344 0 0
4:53 pm 16:53 Sunny 92 33.3 11 -11.7 5 5 SSW 14 22 29.83 1010 10 16.09344 0 0
5:53 pm 17:53 Sunny 91 32.8 5 -15 4 4 SW 10 17 29.83 1010 10 16.09344 0 0
6:53 pm 18:53 Sunny 88 31.1 14 -10 6 6 SSW 10 17 29.83 1010 10 16.09344 0 0
7:53 pm 19:53 Clear 86 30 15 -9.4 7 7 SW 5 7 29.83 1010 10 16.09344 0 0
8:53 pm 20:53 Clear 84 28.9 16 -8.9 8 8 SW 9 15 29.83 1010 10 16.09344 0 0
9:53 pm 21:53 Clear 79 26.1 19 -7.2 10 10 N 5 7 29.85 1011 10 16.09344 0 0
10:53 pm 22:53 Clear 77 25 19 -7.2 11 11 Calm 29.85 1011 10 16.09344 0 0
11:53 pm 23:53 Clear 73 22.8 22 -5.6 15 15 Calm 29.88 1012 10 16.09344 0 0

Powered by AerisWeather